| time (UTC) | temp F | wind direction | speed MPH | gust MPH | rain 1hr in | rain 24hr in | rain mn in | humidity % | barometer mb |
| 20260906101915 | 71 | 64 | 0.0 | 0.0 | 0.00 | 0.00 | 0.00 | 96 | 1011.9 |
| 20260906101411 | 71 | 63 | 0.0 | 0.0 | 0.00 | 0.00 | 0.00 | 95 | 1012.1 |
| 20260906100906 | 71 | 66 | 0.0 | 0.0 | 0.00 | 0.00 | 0.00 | 95 | 1012.0 |
| 20260906100406 | 71 | 67 | 0.0 | 0.0 | 0.00 | 0.00 | 0.00 | 95 | 1012.1 |
| 20260906095900 | 71 | 66 | 0.0 | 0.0 | 0.00 | 0.00 | 0.00 | 95 | 1012.1 |
| 20260906095356 | 71 | 62 | 0.0 | 0.0 | 0.00 | 0.00 | 0.00 | 95 | 1012.1 |
| 20260906094855 | 71 | 62 | 0.0 | 0.0 | 0.00 | 0.00 | 0.00 | 95 | 1012.1 |
| 20260906094351 | 71 | 62 | 0.0 | 0.0 | 0.00 | 0.00 | 0.00 | 95 | 1012.2 |
| 20260906093847 | 71 | 63 | 0.0 | 0.0 | 0.00 | 0.00 | 0.00 | 95 | 1012.2 |
| 20260906093343 | 72 | 68 | 0.0 | 0.0 | 0.00 | 0.00 | 0.00 | 95 | 1012.2 |
| 20260906092843 | 72 | 68 | 0.0 | 0.0 | 0.00 | 0.00 | 0.00 | 94 | 1012.1 |
| 20260906092337 | 72 | 65 | 0.0 | 0.0 | 0.00 | 0.00 | 0.00 | 94 | 1012.1 |
| 20260906091833 | 72 | 60 | 0.0 | 0.0 | 0.00 | 0.00 | 0.00 | 94 | 1012.0 |
| 20260906091329 | 72 | 56 | 0.0 | 0.0 | 0.00 | 0.00 | 0.00 | 94 | 1011.9 |
| 20260906090826 | 72 | 63 | 0.0 | 0.0 | 0.00 | 0.00 | 0.00 | 93 | 1011.9 |
| 20260906090324 | 72 | 62 | 0.0 | 0.0 | 0.00 | 0.00 | 0.00 | 93 | 1011.9 |
| 20260906085825 | 72 | 68 | 0.0 | 0.0 | 0.00 | 0.00 | 0.00 | 93 | 1012.0 |
| 20260906085324 | 72 | 72 | 0.0 | 0.0 | 0.00 | 0.00 | 0.00 | 93 | 1011.9 |
| 20260906084819 | 72 | 72 | 0.0 | 0.0 | 0.00 | 0.00 | 0.00 | 93 | 1012.0 |
| 20260906084318 | 72 | 79 | 0.0 | 0.0 | 0.00 | 0.00 | 0.00 | 93 | 1011.9 |
| 20260906083813 | 72 | 62 | 0.0 | 0.0 | 0.00 | 0.00 | 0.00 | 93 | 1011.6 |
| 20260906083308 | 72 | 62 | 1.0 | 1.0 | 0.00 | 0.00 | 0.00 | 93 | 1011.6 |
| 20260906082803 | 72 | 44 | 1.0 | 1.0 | 0.00 | 0.00 | 0.00 | 93 | 1011.9 |
| 20260906082258 | 72 | 24 | 1.0 | 3.0 | 0.00 | 0.00 | 0.00 | 92 | 1011.5 |
| 20260906081754 | 73 | 54 | 0.0 | 1.0 | 0.00 | 0.00 | 0.00 | 92 | 1011.5 |
| 20260906081249 | 73 | 62 | 0.0 | 0.0 | 0.00 | 0.00 | 0.00 | 92 | 1011.5 |
| 20260906080746 | 73 | 53 | 0.0 | 2.0 | 0.00 | 0.00 | 0.00 | 92 | 1011.5 |
| 20260906080242 | 73 | 46 | 0.0 | 1.0 | 0.00 | 0.00 | 0.00 | 91 | 1011.5 |
| 20260906075742 | 73 | 313 | 1.0 | 2.0 | 0.00 | 0.00 | 0.00 | 91 | 1011.6 |
| 20260906075241 | 73 | 68 | 0.0 | 0.0 | 0.00 | 0.00 | 0.00 | 91 | 1011.5 |
| 20260906074737 | 73 | 115 | 0.0 | 0.0 | 0.00 | 0.00 | 0.00 | 91 | 1011.3 |
| 20260906074236 | 73 | 31 | 1.0 | 1.0 | 0.00 | 0.00 | 0.00 | 91 | 1011.5 |
| 20260906073736 | 73 | 99 | 0.0 | 1.0 | 0.00 | 0.00 | 0.00 | 92 | 1011.3 |
| 20260906073231 | 73 | 58 | 0.0 | 0.0 | 0.00 | 0.00 | 0.00 | 92 | 1011.3 |
| 20260906072727 | 73 | 61 | 0.0 | 0.0 | 0.00 | 0.00 | 0.00 | 92 | 1011.2 |
| 20260906072222 | 73 | 58 | 1.0 | 1.0 | 0.00 | 0.00 | 0.00 | 92 | 1011.2 |
| 20260906071718 | 73 | 62 | 0.0 | 1.0 | 0.00 | 0.00 | 0.00 | 93 | 1011.3 |
| 20260906071218 | 73 | 78 | 0.0 | 0.0 | 0.00 | 0.00 | 0.00 | 93 | 1011.6 |
| 20260906070715 | 73 | 22 | 1.0 | 1.0 | 0.00 | 0.00 | 0.00 | 93 | 1011.5 |
| 20260906070210 | 73 | 63 | 0.0 | 1.0 | 0.00 | 0.00 | 0.00 | 93 | 1011.6 |
| 20260906065709 | 73 | 318 | 1.0 | 1.0 | 0.00 | 0.00 | 0.00 | 94 | 1011.8 |
| 20260906065205 | 73 | 64 | 0.0 | 0.0 | 0.00 | 0.00 | 0.00 | 94 | 1011.8 |
| 20260906064701 | 73 | 64 | 0.0 | 0.0 | 0.00 | 0.00 | 0.00 | 95 | 1011.9 |
| 20260906064201 | 73 | 63 | 0.0 | 0.0 | 0.00 | 0.00 | 0.00 | 95 | 1011.8 |
| 20260906063656 | 73 | 90 | 1.0 | 1.0 | 0.00 | 0.00 | 0.00 | 95 | 1012.1 |
| 20260906063152 | 73 | 55 | 0.0 | 1.0 | 0.00 | 0.00 | 0.00 | 95 | 1012.0 |
| 20260906062648 | 73 | 162 | 1.0 | 1.0 | 0.00 | 0.00 | 0.00 | 95 | 1012.2 |
| 20260906062146 | 73 | 96 | 0.0 | 1.0 | 0.00 | 0.00 | 0.00 | 95 | 1011.9 |
| 20260906061643 | 73 | 118 | 1.0 | 1.0 | 0.00 | 0.00 | 0.00 | 95 | 1012.3 |
| 20260906061143 | 74 | 55 | 1.0 | 1.0 | 0.00 | 0.00 | 0.00 | 95 | 1012.1 |
| 20260906060639 | 74 | 69 | 0.0 | 0.0 | 0.00 | 0.00 | 0.00 | 95 | 1012.1 |
| 20260906060136 | 74 | 99 | 1.0 | 1.0 | 0.00 | 0.00 | 0.00 | 95 | 1012.2 |
| 20260906055632 | 74 | 68 | 0.0 | 1.0 | 0.00 | 0.00 | 0.00 | 95 | 1012.3 |
| 20260906055127 | 74 | 74 | 0.0 | 0.0 | 0.00 | 0.00 | 0.00 | 95 | 1012.3 |
| 20260906054622 | 74 | 71 | 0.0 | 0.0 | 0.00 | 0.00 | 0.00 | 95 | 1012.2 |
| 20260906054117 | 74 | 70 | 0.0 | 0.0 | 0.00 | 0.00 | 0.00 | 95 | 1012.3 |
| 20260906053614 | 74 | 74 | 0.0 | 0.0 | 0.00 | 0.00 | 0.00 | 95 | 1012.5 |
| 20260906053114 | 75 | 73 | 0.0 | 0.0 | 0.00 | 0.00 | 0.00 | 95 | 1012.4 |
| 20260906052609 | 75 | 73 | 0.0 | 0.0 | 0.00 | 0.00 | 0.00 | 95 | 1012.6 |
| 20260906052106 | 74 | 73 | 0.0 | 0.0 | 0.00 | 0.00 | 0.00 | 95 | 1012.6 |
| 20260906051602 | 74 | 73 | 0.0 | 0.0 | 0.00 | 0.00 | 0.00 | 95 | 1012.5 |
| 20260906051057 | 74 | 71 | 0.0 | 0.0 | 0.00 | 0.00 | 0.00 | 96 | 1012.5 |
| 20260906050552 | 74 | 71 | 0.0 | 0.0 | 0.00 | 0.00 | 0.00 | 96 | 1012.6 |
| 20260906050047 | 75 | 69 | 0.0 | 0.0 | 0.00 | 0.00 | 0.00 | 96 | 1012.6 |
| 20260906045545 | 75 | 72 | 0.0 | 0.0 | 0.00 | 0.00 | 0.00 | 96 | 1012.8 |
| 20260906045041 | 75 | 76 | 0.0 | 0.0 | 0.00 | 0.00 | 0.00 | 96 | 1012.7 |
| 20260906044537 | 75 | 79 | 0.0 | 0.0 | 0.00 | 0.00 | 0.00 | 96 | 1012.8 |
| 20260906044032 | 75 | 79 | 0.0 | 0.0 | 0.00 | 0.00 | 0.00 | 96 | 1012.8 |
| 20260906043527 | 75 | 79 | 0.0 | 0.0 | 0.00 | 0.00 | 0.00 | 96 | 1012.8 |
| 20260906043024 | 75 | 77 | 0.0 | 0.0 | 0.00 | 0.00 | 0.00 | 96 | 1012.6 |
| 20260906042523 | 75 | 86 | 0.0 | 1.0 | 0.00 | 0.00 | 0.00 | 96 | 1012.7 |
| 20260906042023 | 75 | 78 | 0.0 | 0.0 | 0.00 | 0.00 | 0.00 | 96 | 1012.8 |
| 20260906041519 | 75 | 105 | 0.0 | 0.0 | 0.00 | 0.00 | 0.00 | 96 | 1012.6 |
| 20260906041019 | 75 | 92 | 0.0 | 1.0 | 0.00 | 0.00 | 0.00 | 96 | 1012.7 |
| 20260906040514 | 75 | 90 | 0.0 | 1.0 | 0.00 | 0.00 | 0.00 | 96 | 1012.9 |
| 20260906040010 | 75 | 76 | 0.0 | 0.0 | 0.00 | 0.15 | 0.15 | 96 | 1012.8 |
| 20260906035504 | 75 | 72 | 0.0 | 0.0 | 0.00 | 0.15 | 0.15 | 96 | 1012.7 |
| 20260906035001 | 75 | 72 | 0.0 | 0.0 | 0.00 | 0.15 | 0.15 | 96 | 1012.6 |
| 20260906034500 | 75 | 81 | 0.0 | 0.0 | 0.00 | 0.15 | 0.15 | 96 | 1012.5 |
| 20260906033955 | 75 | 83 | 0.0 | 0.0 | 0.00 | 0.15 | 0.15 | 96 | 1012.4 |
| 20260906033450 | 75 | 72 | 0.0 | 0.0 | 0.00 | 0.15 | 0.15 | 96 | 1012.5 |
| 20260906032946 | 75 | 75 | 0.0 | 0.0 | 0.00 | 0.15 | 0.15 | 96 | 1012.5 |
| 20260906032443 | 75 | 77 | 0.0 | 0.0 | 0.00 | 0.15 | 0.15 | 96 | 1012.6 |
| 20260906031942 | 75 | 77 | 0.0 | 0.0 | 0.00 | 0.15 | 0.15 | 96 | 1012.6 |
| 20260906031438 | 75 | 69 | 0.0 | 1.0 | 0.00 | 0.15 | 0.15 | 96 | 1012.7 |
| 20260906030933 | 75 | 77 | 0.0 | 0.0 | 0.00 | 0.15 | 0.15 | 96 | 1012.7 |
| 20260906030428 | 75 | 93 | 0.0 | 1.0 | 0.00 | 0.15 | 0.15 | 96 | 1012.8 |
| 20260906025922 | 75 | 68 | 0.0 | 1.0 | 0.00 | 0.15 | 0.15 | 96 | 1012.8 |
| 20260906025417 | 75 | 81 | 0.0 | 0.0 | 0.00 | 0.15 | 0.15 | 96 | 1012.9 |
| 20260906024915 | 75 | 82 | 0.0 | 0.0 | 0.00 | 0.15 | 0.15 | 96 | 1012.9 |
| 20260906024415 | 75 | 75 | 0.0 | 0.0 | 0.00 | 0.15 | 0.15 | 96 | 1012.9 |
| 20260906023910 | 74 | 75 | 0.0 | 0.0 | 0.00 | 0.15 | 0.15 | 96 | 1013.0 |
| 20260906023407 | 74 | 75 | 0.0 | 0.0 | 0.00 | 0.15 | 0.15 | 96 | 1013.0 |
| 20260906022906 | 74 | 73 | 0.0 | 0.0 | 0.00 | 0.15 | 0.15 | 96 | 1012.9 |
| 20260906022401 | 74 | 77 | 0.0 | 0.0 | 0.00 | 0.15 | 0.15 | 95 | 1013.1 |
| 20260906021857 | 74 | 84 | 0.0 | 1.0 | 0.00 | 0.15 | 0.15 | 95 | 1013.0 |
| 20260906021356 | 74 | 89 | 0.0 | 0.0 | 0.00 | 0.15 | 0.15 | 95 | 1013.0 |
| 20260906020851 | 74 | 78 | 0.0 | 0.0 | 0.00 | 0.15 | 0.15 | 95 | 1013.2 |
| 20260906020350 | 74 | 80 | 0.0 | 0.0 | 0.00 | 0.15 | 0.15 | 95 | 1013.0 |
| 20260906015846 | 74 | 78 | 0.0 | 0.0 | 0.00 | 0.15 | 0.15 | 96 | 1013.3 |
| 20260906015345 | 73 | 65 | 0.0 | 1.0 | 0.00 | 0.15 | 0.15 | 95 | 1013.4 |
| 20260906014845 | 74 | 59 | 0.0 | 1.0 | 0.00 | 0.15 | 0.15 | 96 | 1013.1 |
| 20260906014345 | 73 | 70 | 0.0 | 0.0 | 0.00 | 0.15 | 0.15 | 96 | 1013.1 |
| 20260906013841 | 73 | 67 | 0.0 | 0.0 | 0.00 | 0.15 | 0.15 | 95 | 1012.9 |
| 20260906013336 | 73 | 74 | 0.0 | 0.0 | 0.00 | 0.15 | 0.15 | 95 | 1012.7 |
| 20260906012832 | 73 | 73 | 0.0 | 0.0 | 0.00 | 0.15 | 0.15 | 95 | 1012.8 |
| 20260906012327 | 73 | 67 | 0.0 | 0.0 | 0.00 | 0.15 | 0.15 | 95 | 1012.5 |
| 20260906011826 | 73 | 58 | 0.0 | 0.0 | 0.00 | 0.15 | 0.15 | 95 | 1012.5 |
| 20260906011321 | 73 | 61 | 1.0 | 1.0 | 0.00 | 0.15 | 0.15 | 95 | 1012.4 |
| 20260906010817 | 73 | 67 | 0.0 | 1.0 | 0.00 | 0.15 | 0.15 | 95 | 1012.5 |
| 20260906010313 | 73 | 55 | 1.0 | 1.0 | 0.00 | 0.15 | 0.15 | 95 | 1012.4 |
| 20260906005808 | 73 | 69 | 0.0 | 1.0 | 0.00 | 0.15 | 0.15 | 95 | 1012.3 |
| 20260906005307 | 72 | 149 | 2.0 | 2.0 | 0.00 | 0.15 | 0.15 | 95 | 1012.3 |
| 20260906004807 | 72 | 71 | 0.0 | 0.0 | 0.00 | 0.15 | 0.15 | 95 | 1011.9 |
| 20260906004307 | 72 | 68 | 0.0 | 0.0 | 0.00 | 0.15 | 0.15 | 94 | 1011.6 |
| 20260906003802 | 72 | 39 | 0.0 | 0.0 | 0.00 | 0.15 | 0.15 | 94 | 1011.5 |
| 20260906003257 | 72 | 89 | 0.0 | 0.0 | 0.00 | 0.15 | 0.15 | 94 | 1011.5 |
| 20260906002753 | 72 | 80 | 0.0 | 0.0 | 0.00 | 0.15 | 0.15 | 94 | 1011.3 |
| 20260906002252 | 72 | 108 | 1.0 | 1.0 | 0.00 | 0.15 | 0.15 | 94 | 1011.4 |
| 20260906001748 | 72 | 78 | 0.0 | 0.0 | 0.00 | 0.15 | 0.15 | 94 | 1011.2 |
| 20260906001248 | 72 | 69 | 0.0 | 2.0 | 0.00 | 0.15 | 0.15 | 93 | 1011.3 |
| 20260906000743 | 72 | 82 | 0.0 | 0.0 | 0.07 | 0.15 | 0.15 | 93 | 1011.6 |
| 20260906000238 | 72 | 64 | 0.0 | 0.0 | 0.07 | 0.15 | 0.15 | 93 | 1011.4 |
| 20260905235733 | 72 | 38 | 2.0 | 2.0 | 0.12 | 0.14 | 0.14 | 92 | 1011.1 |
| 20260905235233 | 72 | 119 | 0.0 | 0.0 | 0.12 | 0.14 | 0.14 | 91 | 1010.9 |
| 20260905234728 | 73 | 77 | 0.0 | 1.0 | 0.40 | 0.12 | 0.12 | 89 | 1011.1 |
| 20260905234224 | 73 | 97 | 1.0 | 2.0 | 0.54 | 0.09 | 0.09 | 87 | 1011.1 |
| 20260905233719 | 76 | 75 | 1.0 | 2.0 | 0.35 | 0.06 | 0.06 | 82 | 1011.5 |
| 20260905233218 | 83 | 55 | 2.0 | 11.0 | 0.00 | 0.00 | 0.00 | 65 | 1011.8 |
| 20260905232713 | 83 | 60 | 6.0 | 16.0 | 0.00 | 0.00 | 0.00 | 59 | 1011.9 |
| 20260905232209 | 85 | 120 | 6.0 | 11.0 | 0.00 | 0.00 | 0.00 | 58 | 1012.0 |
| 20260905231704 | 87 | 63 | 3.0 | 7.0 | 0.00 | 0.00 | 0.00 | 63 | 1011.8 |
| 20260905231200 | 91 | 52 | 4.0 | 13.0 | 0.00 | 0.00 | 0.00 | 58 | 1012.0 |
| 20260905230655 | 96 | 70 | 0.0 | 1.0 | 0.00 | 0.00 | 0.00 | 46 | 1011.2 |
| 20260905230153 | 97 | 72 | 1.0 | 1.0 | 0.00 | 0.00 | 0.00 | 45 | 1011.1 |
| 20260905225653 | 97 | 73 | 0.0 | 1.0 | 0.00 | 0.00 | 0.00 | 45 | 1010.8 |
| 20260905225148 | 98 | 61 | 1.0 | 1.0 | 0.00 | 0.00 | 0.00 | 43 | 1010.8 |
| 20260905224647 | 98 | 82 | 0.0 | 1.0 | 0.00 | 0.00 | 0.00 | 42 | 1010.7 |
| 20260905224142 | 97 | 72 | 0.0 | 1.0 | 0.00 | 0.00 | 0.00 | 42 | 1010.7 |
| 20260905223639 | 97 | 48 | 1.0 | 2.0 | 0.00 | 0.00 | 0.00 | 42 | 1010.8 |
| 20260905223135 | 98 | 60 | 0.0 | 1.0 | 0.00 | 0.00 | 0.00 | 41 | 1010.9 |
| 20260905222631 | 99 | 79 | 0.0 | 1.0 | 0.00 | 0.00 | 0.00 | 40 | 1010.7 |
| 20260905222125 | 100 | 357 | 1.0 | 3.0 | 0.00 | 0.00 | 0.00 | 40 | 1010.6 |
| 20260905221621 | 100 | 78 | 0.0 | 2.0 | 0.00 | 0.00 | 0.00 | 40 | 1010.4 |
| 20260905221118 | 100 | 98 | 0.0 | 1.0 | 0.00 | 0.00 | 0.00 | 39 | 1010.6 |
| 20260905220613 | 99 | 71 | 0.0 | 2.0 | 0.00 | 0.00 | 0.00 | 40 | 1010.4 |
| 20260905220109 | 98 | 95 | 0.0 | 1.0 | 0.00 | 0.00 | 0.00 | 41 | 1010.4 |
| 20260905215608 | 98 | 94 | 1.0 | 1.0 | 0.00 | 0.00 | 0.00 | 42 | 1010.5 |
| 20260905215104 | 97 | 70 | 0.0 | 1.0 | 0.00 | 0.00 | 0.00 | 41 | 1010.3 |
| 20260905214600 | 98 | 80 | 1.0 | 2.0 | 0.00 | 0.00 | 0.00 | 41 | 1010.2 |
| 20260905214054 | 100 | 78 | 0.0 | 1.0 | 0.00 | 0.00 | 0.00 | 40 | 1010.5 |
| 20260905213550 | 101 | 273 | 2.0 | 7.0 | 0.00 | 0.00 | 0.00 | 39 | 1010.3 |
| 20260905213045 | 102 | 91 | 0.0 | 2.0 | 0.00 | 0.00 | 0.00 | 38 | 1010.4 |
| 20260905212545 | 101 | 55 | 1.0 | 1.0 | 0.00 | 0.00 | 0.00 | 39 | 1010.5 |
| 20260905212045 | 100 | 88 | 0.0 | 1.0 | 0.00 | 0.00 | 0.00 | 40 | 1010.6 |
| 20260905211540 | 100 | 39 | 2.0 | 4.0 | 0.00 | 0.00 | 0.00 | 41 | 1010.8 |
| 20260905211036 | 99 | 4 | 2.0 | 2.0 | 0.00 | 0.00 | 0.00 | 41 | 1010.7 |
| 20260905210532 | 99 | 272 | 3.0 | 4.0 | 0.00 | 0.00 | 0.00 | 42 | 1010.9 |
| 20260905210032 | 98 | 129 | 3.0 | 3.0 | 0.00 | 0.00 | 0.00 | 43 | 1010.9 |
| 20260905205531 | 98 | 258 | 2.0 | 3.0 | 0.00 | 0.00 | 0.00 | 44 | 1011.0 |
| 20260905205030 | 97 | 98 | 0.0 | 1.0 | 0.00 | 0.00 | 0.00 | 46 | 1010.7 |
| 20260905204525 | 97 | 88 | 0.0 | 2.0 | 0.00 | 0.00 | 0.00 | 46 | 1010.8 |
| 20260905204021 | 97 | 121 | 1.0 | 1.0 | 0.00 | 0.00 | 0.00 | 44 | 1010.9 |
| 20260905203520 | 97 | 61 | 1.0 | 1.0 | 0.00 | 0.00 | 0.00 | 43 | 1010.7 |
| 20260905203016 | 97 | 133 | 1.0 | 2.0 | 0.00 | 0.00 | 0.00 | 42 | 1010.8 |
| 20260905202511 | 97 | 82 | 0.0 | 0.0 | 0.00 | 0.00 | 0.00 | 42 | 1011.0 |
| 20260905202006 | 97 | 69 | 0.0 | 0.0 | 0.00 | 0.00 | 0.00 | 42 | 1011.1 |
| 20260905201501 | 97 | 79 | 0.0 | 1.0 | 0.00 | 0.00 | 0.00 | 42 | 1011.3 |
| 20260905201001 | 97 | 108 | 1.0 | 1.0 | 0.00 | 0.00 | 0.00 | 42 | 1011.3 |
| 20260905200457 | 98 | 114 | 1.0 | 2.0 | 0.00 | 0.00 | 0.00 | 41 | 1011.4 |
| 20260905195955 | 99 | 76 | 1.0 | 1.0 | 0.00 | 0.00 | 0.00 | 41 | 1011.5 |
| 20260905195450 | 99 | 334 | 5.0 | 6.0 | 0.00 | 0.00 | 0.00 | 40 | 1011.3 |
| 20260905194946 | 100 | 338 | 2.0 | 3.0 | 0.00 | 0.00 | 0.00 | 40 | 1011.8 |
| 20260905194445 | 98 | 65 | 1.0 | 3.0 | 0.00 | 0.00 | 0.00 | 41 | 1011.5 |
| 20260905193940 | 99 | 43 | 3.0 | 6.0 | 0.00 | 0.00 | 0.00 | 41 | 1011.6 |
| 20260905193440 | 100 | 62 | 2.0 | 4.0 | 0.00 | 0.00 | 0.00 | 41 | 1011.8 |
| 20260905192935 | 101 | 103 | 1.0 | 2.0 | 0.00 | 0.00 | 0.00 | 39 | 1011.5 |
| 20260905192431 | 101 | 74 | 0.0 | 2.0 | 0.00 | 0.00 | 0.00 | 39 | 1011.5 |
| 20260905191926 | 99 | 60 | 1.0 | 1.0 | 0.00 | 0.00 | 0.00 | 41 | 1011.8 |
| 20260905191420 | 98 | 215 | 1.0 | 3.0 | 0.00 | 0.00 | 0.00 | 42 | 1011.8 |
| 20260905190920 | 99 | 56 | 2.0 | 4.0 | 0.00 | 0.00 | 0.00 | 41 | 1011.8 |
| 20260905190418 | 97 | 102 | 1.0 | 1.0 | 0.00 | 0.00 | 0.00 | 44 | 1011.9 |
| 20260905185916 | 95 | 63 | 1.0 | 3.0 | 0.00 | 0.00 | 0.00 | 43 | 1012.0 |
| 20260905185412 | 96 | 76 | 1.0 | 4.0 | 0.00 | 0.00 | 0.00 | 47 | 1012.1 |
| 20260905184911 | 96 | 105 | 0.0 | 1.0 | 0.00 | 0.00 | 0.00 | 46 | 1012.1 |
| 20260905184411 | 95 | 235 | 2.0 | 3.0 | 0.00 | 0.00 | 0.00 | 46 | 1012.3 |
| 20260905183909 | 94 | 64 | 0.0 | 2.0 | 0.00 | 0.00 | 0.00 | 49 | 1012.4 |
| 20260905183404 | 94 | 56 | 0.0 | 1.0 | 0.00 | 0.00 | 0.00 | 50 | 1012.4 |
| 20260905182859 | 95 | 87 | 0.0 | 1.0 | 0.00 | 0.00 | 0.00 | 49 | 1012.6 |
| 20260905182358 | 95 | 73 | 0.0 | 2.0 | 0.00 | 0.00 | 0.00 | 48 | 1012.6 |
| 20260905181854 | 96 | 90 | 2.0 | 3.0 | 0.00 | 0.00 | 0.00 | 45 | 1012.9 |
| 20260905181354 | 95 | 271 | 3.0 | 4.0 | 0.00 | 0.00 | 0.00 | 47 | 1012.7 |
| 20260905180853 | 96 | 57 | 3.0 | 3.0 | 0.00 | 0.00 | 0.00 | 47 | 1012.6 |
| 20260905180349 | 94 | 92 | 0.0 | 3.0 | 0.00 | 0.00 | 0.00 | 46 | 1012.7 |
| 20260905175843 | 94 | 69 | 0.0 | 4.0 | 0.00 | 0.00 | 0.00 | 48 | 1012.9 |
| 20260905175337 | 96 | 69 | 1.0 | 2.0 | 0.00 | 0.00 | 0.00 | 45 | 1013.0 |
| 20260905174832 | 97 | 68 | 1.0 | 3.0 | 0.00 | 0.00 | 0.00 | 45 | 1013.1 |
| 20260905174329 | 96 | 48 | 2.0 | 2.0 | 0.00 | 0.00 | 0.00 | 46 | 1013.0 |
| 20260905173824 | 96 | 45 | 2.0 | 4.0 | 0.00 | 0.00 | 0.00 | 46 | 1013.1 |
| 20260905173320 | 96 | 62 | 1.0 | 6.0 | 0.00 | 0.00 | 0.00 | 47 | 1013.3 |
| 20260905172820 | 95 | 68 | 0.0 | 3.0 | 0.00 | 0.00 | 0.00 | 47 | 1013.4 |
| 20260905172318 | 96 | 60 | 1.0 | 3.0 | 0.00 | 0.00 | 0.00 | 48 | 1013.6 |
| 20260905171814 | 95 | 83 | 1.0 | 2.0 | 0.00 | 0.00 | 0.00 | 50 | 1013.6 |
| 20260905171311 | 96 | 59 | 4.0 | 6.0 | 0.00 | 0.00 | 0.00 | 47 | 1013.7 |
| 20260905170807 | 95 | 71 | 1.0 | 2.0 | 0.00 | 0.00 | 0.00 | 50 | 1013.7 |
| 20260905170302 | 95 | 91 | 1.0 | 4.0 | 0.00 | 0.00 | 0.00 | 50 | 1013.8 |
| 20260905165801 | 95 | 82 | 0.0 | 2.0 | 0.00 | 0.00 | 0.00 | 51 | 1013.8 |
| 20260905165257 | 95 | 49 | 2.0 | 2.0 | 0.00 | 0.00 | 0.00 | 51 | 1013.9 |
| 20260905164752 | 94 | 80 | 0.0 | 2.0 | 0.00 | 0.00 | 0.00 | 51 | 1014.0 |
| 20260905164252 | 94 | 108 | 0.0 | 6.0 | 0.00 | 0.00 | 0.00 | 54 | 1014.1 |
| 20260905163747 | 94 | 50 | 1.0 | 2.0 | 0.00 | 0.00 | 0.00 | 54 | 1014.0 |
| 20260905163244 | 92 | 101 | 1.0 | 1.0 | 0.00 | 0.00 | 0.00 | 56 | 1014.1 |
| 20260905162740 | 92 | 53 | 1.0 | 8.0 | 0.00 | 0.00 | 0.00 | 55 | 1014.3 |
| 20260905162239 | 93 | 55 | 2.0 | 3.0 | 0.00 | 0.00 | 0.00 | 57 | 1014.4 |
| 20260905161734 | 93 | 85 | 0.0 | 3.0 | 0.00 | 0.00 | 0.00 | 57 | 1014.3 |
| 20260905161232 | 92 | 117 | 1.0 | 2.0 | 0.00 | 0.00 | 0.00 | 60 | 1014.4 |
| 20260905160732 | 91 | 72 | 0.0 | 1.0 | 0.00 | 0.00 | 0.00 | 61 | 1014.5 |
| 20260905160231 | 91 | 99 | 1.0 | 2.0 | 0.00 | 0.00 | 0.00 | 63 | 1014.5 |
| 20260905155727 | 91 | 29 | 1.0 | 4.0 | 0.00 | 0.00 | 0.00 | 64 | 1014.7 |
| 20260905155225 | 90 | 98 | 1.0 | 3.0 | 0.00 | 0.00 | 0.00 | 65 | 1014.6 |
| 20260905154719 | 90 | 61 | 0.0 | 3.0 | 0.00 | 0.00 | 0.00 | 67 | 1014.8 |
| 20260905154215 | 90 | 85 | 0.0 | 1.0 | 0.00 | 0.00 | 0.00 | 67 | 1014.8 |
| 20260905153710 | 89 | 95 | 1.0 | 2.0 | 0.00 | 0.00 | 0.00 | 68 | 1014.7 |
| 20260905153206 | 88 | 64 | 1.0 | 1.0 | 0.00 | 0.00 | 0.00 | 70 | 1014.9 |
| 20260905152701 | 88 | 77 | 0.0 | 2.0 | 0.00 | 0.00 | 0.00 | 72 | 1015.0 |
| 20260905152155 | 86 | 63 | 1.0 | 2.0 | 0.00 | 0.00 | 0.00 | 74 | 1014.9 |
| 20260905151650 | 87 | 66 | 1.0 | 3.0 | 0.00 | 0.00 | 0.00 | 75 | 1015.0 |
| 20260905151145 | 86 | 54 | 0.0 | 3.0 | 0.00 | 0.00 | 0.00 | 75 | 1014.9 |
| 20260905150641 | 86 | 62 | 1.0 | 2.0 | 0.00 | 0.00 | 0.00 | 77 | 1015.0 |
| 20260905150139 | 85 | 62 | 1.0 | 2.0 | 0.00 | 0.00 | 0.00 | 78 | 1015.0 |
| 20260905145638 | 85 | 65 | 1.0 | 2.0 | 0.00 | 0.00 | 0.00 | 79 | 1015.0 |
| 20260905145137 | 84 | 65 | 1.0 | 1.0 | 0.00 | 0.00 | 0.00 | 80 | 1015.2 |
| 20260905144632 | 84 | 72 | 0.0 | 2.0 | 0.00 | 0.00 | 0.00 | 80 | 1015.1 |
| 20260905144131 | 83 | 26 | 2.0 | 3.0 | 0.00 | 0.00 | 0.00 | 81 | 1015.0 |
| 20260905143626 | 83 | 88 | 1.0 | 2.0 | 0.00 | 0.00 | 0.00 | 82 | 1015.2 |
| 20260905143125 | 82 | 64 | 1.0 | 2.0 | 0.00 | 0.00 | 0.00 | 83 | 1015.2 |
| 20260905142624 | 81 | 70 | 0.0 | 2.0 | 0.00 | 0.00 | 0.00 | 86 | 1015.3 |
| 20260905142119 | 81 | 4 | 2.0 | 3.0 | 0.00 | 0.00 | 0.00 | 86 | 1015.3 |
| 20260905141618 | 80 | 87 | 0.0 | 1.0 | 0.00 | 0.00 | 0.00 | 88 | 1015.4 |
| 20260905141116 | 80 | 158 | 1.0 | 2.0 | 0.00 | 0.00 | 0.00 | 89 | 1015.3 |
| 20260905140616 | 80 | 47 | 1.0 | 1.0 | 0.00 | 0.00 | 0.00 | 90 | 1015.3 |
| 20260905140115 | 79 | 98 | 0.0 | 2.0 | 0.00 | 0.00 | 0.00 | 92 | 1015.3 |
| 20260905135610 | 79 | 75 | 0.0 | 0.0 | 0.00 | 0.00 | 0.00 | 94 | 1015.5 |
| 20260905135105 | 79 | 96 | 0.0 | 1.0 | 0.00 | 0.00 | 0.00 | 97 | 1015.3 |
| 20260905134600 | 78 | 73 | 0.0 | 0.0 | 0.00 | 0.00 | 0.00 | 98 | 1015.4 |
| 20260905134059 | 77 | 76 | 0.0 | 0.0 | 0.00 | 0.00 | 0.00 | 98 | 1015.1 |
| 20260905133555 | 77 | 89 | 0.0 | 1.0 | 0.00 | 0.00 | 0.00 | 97 | 1015.5 |
| 20260905133054 | 77 | 90 | 0.0 | 1.0 | 0.00 | 0.00 | 0.00 | 97 | 1015.5 |
| 20260905132554 | 77 | 73 | 0.0 | 1.0 | 0.00 | 0.00 | 0.00 | 97 | 1015.4 |
| 20260905132049 | 76 | 71 | 0.0 | 0.0 | 0.00 | 0.00 | 0.00 | 98 | 1015.4 |
| 20260905131544 | 76 | 97 | 0.0 | 1.0 | 0.00 | 0.00 | 0.00 | 98 | 1015.4 |
| 20260905131039 | 76 | 91 | 0.0 | 1.0 | 0.00 | 0.00 | 0.00 | 98 | 1015.4 |
| 20260905130538 | 76 | 77 | 0.0 | 0.0 | 0.00 | 0.00 | 0.00 | 98 | 1015.3 |
| 20260905130034 | 75 | 73 | 0.0 | 0.0 | 0.00 | 0.00 | 0.00 | 98 | 1015.4 |
| 20260905125533 | 75 | 64 | 0.0 | 1.0 | 0.00 | 0.00 | 0.00 | 98 | 1015.3 |
| 20260905125029 | 75 | 58 | 0.0 | 1.0 | 0.00 | 0.00 | 0.00 | 98 | 1015.6 |
| 20260905124526 | 75 | 103 | 0.0 | 1.0 | 0.00 | 0.00 | 0.00 | 98 | 1015.4 |
| 20260905124021 | 75 | 74 | 0.0 | 0.0 | 0.00 | 0.00 | 0.00 | 98 | 1015.5 |
| 20260905123517 | 75 | 73 | 0.0 | 1.0 | 0.00 | 0.00 | 0.00 | 98 | 1015.4 |
| 20260905123013 | 75 | 82 | 0.0 | 0.0 | 0.00 | 0.00 | 0.00 | 98 | 1015.3 |
| 20260905122508 | 75 | 85 | 0.0 | 1.0 | 0.00 | 0.00 | 0.00 | 98 | 1015.4 |
| 20260905122003 | 75 | 81 | 0.0 | 0.0 | 0.00 | 0.00 | 0.00 | 98 | 1015.4 |
| 20260905121457 | 75 | 81 | 0.0 | 0.0 | 0.00 | 0.00 | 0.00 | 98 | 1015.5 |
| 20260905120956 | 75 | 71 | 0.0 | 1.0 | 0.00 | 0.00 | 0.00 | 98 | 1015.2 |
| 20260905120451 | 75 | 77 | 0.0 | 0.0 | 0.00 | 0.00 | 0.00 | 98 | 1015.2 |
| 20260905115946 | 74 | 77 | 0.0 | 0.0 | 0.00 | 0.00 | 0.00 | 98 | 1015.2 |
| 20260905115446 | 74 | 77 | 0.0 | 0.0 | 0.00 | 0.00 | 0.00 | 98 | 1015.2 |
| 20260905114941 | 74 | 77 | 0.0 | 0.0 | 0.00 | 0.00 | 0.00 | 98 | 1015.0 |
| 20260905114440 | 74 | 81 | 0.0 | 0.0 | 0.00 | 0.00 | 0.00 | 98 | 1015.1 |
| 20260905113939 | 74 | 75 | 0.0 | 0.0 | 0.00 | 0.00 | 0.00 | 98 | 1015.0 |
| 20260905113435 | 74 | 75 | 0.0 | 0.0 | 0.00 | 0.00 | 0.00 | 98 | 1015.0 |
| 20260905112930 | 74 | 74 | 0.0 | 0.0 | 0.00 | 0.00 | 0.00 | 98 | 1014.9 |
| 20260905112425 | 74 | 69 | 0.0 | 0.0 | 0.00 | 0.00 | 0.00 | 98 | 1014.9 |
| 20260905111920 | 74 | 70 | 0.0 | 0.0 | 0.00 | 0.00 | 0.00 | 97 | 1014.8 |
| 20260905111420 | 74 | 84 | 0.0 | 0.0 | 0.00 | 0.00 | 0.00 | 97 | 1014.6 |
| 20260905110914 | 74 | 70 | 0.0 | 1.0 | 0.00 | 0.00 | 0.00 | 97 | 1014.7 |
| 20260905110414 | 74 | 66 | 0.0 | 0.0 | 0.00 | 0.00 | 0.00 | 97 | 1014.6 |
| 20260905105909 | 74 | 65 | 0.0 | 0.0 | 0.00 | 0.00 | 0.00 | 97 | 1014.5 |
| 20260905105409 | 74 | 59 | 0.0 | 1.0 | 0.00 | 0.00 | 0.00 | 97 | 1014.6 |
| 20260905104908 | 74 | 67 | 0.0 | 1.0 | 0.00 | 0.00 | 0.00 | 97 | 1014.6 |
| 20260905104404 | 74 | 41 | 0.0 | 1.0 | 0.00 | 0.00 | 0.00 | 97 | 1014.7 |
| 20260905103904 | 74 | 83 | 0.0 | 0.0 | 0.00 | 0.00 | 0.00 | 97 | 1014.4 |
| 20260905103400 | 74 | 88 | 0.0 | 2.0 | 0.00 | 0.00 | 0.00 | 97 | 1014.5 |
| 20260905102856 | 74 | 76 | 0.0 | 0.0 | 0.00 | 0.00 | 0.00 | 97 | 1014.5 |
| 20260905102352 | 74 | 79 | 0.0 | 1.0 | 0.00 | 0.00 | 0.00 | 97 | 1014.4 |